Regional Weather Roundup
Issued by NWS

Home | Current Version | Previous Version | Graphics & Text | Print | Product List | Glossary On
Versions: 1 2 3 4 5 6 7 8 9 10 11 12 13 14 15 16 17 18 19 20 21 22 23 24 25 26 27 28 29 30 31 32 33 34 35 36 37 38 39 40 41 42 43 44 45 46 47 48 49 50
000
ASUS43 KOAX 260210
RWRNE

WEATHER ROUNDUP FOR NEBRASKA
NATIONAL WEATHER SERVICE OMAHA NE
900 PM CDT SUN SEP 25 2016

NOTES: SATELLITE DATA IS BEING USED TO AUGMENT CLOUD COVER ABOVE
       12000 FEET.
       "FAIR" INDICATES FEW OR NO CLOUDS BELOW 12,000 FEET WITH NO
       SIGNIFICANT WEATHER AND/OR OBSTRUCTIONS TO VISIBILITY.

  * THESE STATIONS DO NOT REPORT WEATHER SUCH AS RAIN...SNOW OR FOG.

NEZ001>004-019>022-054>056-260300-
NEBRASKA PANHANDLE

CITY           SKY/WX    TMP DP  RH WIND       PRES   REMARKS
SCOTTSBLUFF    CLEAR     51  39  63 MISG      30.36R
ALLIANCE       CLEAR     44  30  57 NE5       30.35R
CHADRON        CLEAR     54  31  41 NW5       30.34R
KIMBALL        CLEAR     49  38  66 CALM      30.39R
SIDNEY         CLEAR     50  36  58 NE6       30.38S
$$

NEZ057>060-069>072-079>082-260300-
SOUTHWEST NEBRASKA

CITY           SKY/WX    TMP DP  RH WIND       PRES   REMARKS
NORTH PLATTE   CLEAR     49  30  48 CALM      30.33R
IMPERIAL       CLEAR     54  35  48 N6        30.35R
LEXINGTON      CLEAR     52  31  45 N7        30.32R
MCCOOK         CLEAR     52  27  38 N9        30.33R
OGALLALA       CLEAR     51  31  47 N6        30.35R
$$

NEZ005>010-023>029-035>040-094-260300-
NORTH CENTRAL NEBRASKA

CITY           SKY/WX    TMP DP  RH WIND       PRES   REMARKS
VALENTINE      CLEAR     47  28  47 W6        30.29S
AINSWORTH      CLEAR     51  31  46 W5        30.29S
BROKEN BOW     CLEAR     50  26  39 NW8       30.31R
O`NEILL        CLEAR     53  31  43 W8        30.26R
ORD            CLEAR     50  33  52 NW8       30.27R
THEDFORD       CLEAR     53  31  42 N6        30.33R
$$

NEZ041-046>049-061>064-073>077-083>087-260300-
SOUTH CENTRAL NEBRASKA

CITY           SKY/WX    TMP DP  RH WIND       PRES   REMARKS
GRAND ISLAND   CLEAR     51  38  60 NW7       30.27R
AURORA         CLEAR     52  40  64 NW7       30.27R
HASTINGS       CLEAR     51  38  60 NW8       30.28R
HEBRON         CLEAR     56  39  53 CALM      30.26R
HOLDREGE       CLEAR     52  30  42 NW5       30.30R
KEARNEY *      CLEAR     55  28  35 NW7       30.29R
YORK           CLEAR     50  41  71 NW8       30.26R
$$

NEZ011>018-030>034-042>045-260300-
NORTHEAST NEBRASKA

CITY           SKY/WX    TMP DP  RH WIND       PRES   REMARKS
NORFOLK        CLEAR     53  36  52 W7        30.23R
ALBION         CLEAR     54  34  47 NW3       30.26R
BLAIR          CLEAR     59  40  49 NW7       30.20R
FREMONT        CLEAR     53  42  67 W3        30.21R
TEKAMAH        CLEAR     56  41  57 W8        30.19R
WAYNE          CLEAR     53  39  57 W7        30.22R
$$

NEZ050>053-065>068-078-088>093-260300-
SOUTHEAST NEBRASKA

CITY           SKY/WX    TMP DP  RH WIND       PRES   REMARKS
LINCOLN        CLEAR     61  39  44 NW7       30.24R
OMAHA EPPLEY   CLEAR     58  44  60 NW10      30.19R
BEATRICE       CLEAR     54  45  71 NW8       30.23R
FALLS CITY     CLEAR     60  52  74 NW6       30.18R
NEBRASKA CITY  CLEAR     60  37  42 NW7       30.20R
PLATTSMOUTH    CLEAR     58  42  54 NW7       30.20R
$$

NEZ044-045-051>053-067-260300-
OMAHA AREA

CITY           SKY/WX    TMP DP  RH WIND       PRES   REMARKS
OMAHA EPPLEY   CLEAR     58  44  60 NW10      30.19R
BLAIR          CLEAR     59  40  49 NW7       30.20R
FREMONT        CLEAR     53  42  67 W3        30.21R
MILLARD        CLEAR     60  48  65 CALM      30.20R
OFFUTT AFB     CLEAR     56  49  76 NW8       30.19R
PLATTSMOUTH    CLEAR     58  42  54 NW7       30.20R
WAHOO          FAIR      59  38  45 NW7       30.22R
$$




USA.gov is the U.S. government's official web portal to all federal, state and local government web resources and services.